Home   Weather   Koror   Past weeks

Flag for Palau Past Weather in Koror, Palau — Yesterday and Last 2 Weeks

82 °F

Broken clouds.

Feels Like: 91 °F
Forecast: 79 / 87 °F
Wind: 5 mph from Northwest

Location: Koror / Palau Island

Current Time: Oct 23, 2016 at 5:03:51 PM

Latest Report: Oct 23, 2016 at 3:54 PM

Visibility: 15 mi

Pressure: 29.76 "Hg

Humidity: 84%

Dew Point: 77 °F

Location of KororLocation

Past Weather in Koror — Graph


Koror Temperature Yesterday

Maximum temperature yesterday: 90 °F (at 11:53 AM)
Minimum temperature yesterday: 79 °F (at 3:50 AM)
Average temperature yesterday: 83 °F

High & Low Weather Summary for the Past Weeks

High95 °F (Oct 23, 11:50 AM)100% (Oct 8, 7:50 PM)29.85 "Hg (Oct 8, 7:50 PM)
Low77 °F (Oct 11, 9:50 PM)56% (Oct 23, 11:50 AM)29.66 "Hg (Oct 17, 1:50 PM)
Average83 °F88%29.77 "Hg
* Reported Oct 8 3:50 PM — Oct 23 3:54 PM, Koror, Weather by CustomWeather, © 2016

Note: Actual official high and low records may vary slightly from our data, if they occured in-between our weather recording intervals... More about our weather records


Koror Weather History for the Previous 24 Hours

Scroll right to see more
Time TempWeatherWind HumidityBarometerVisibility
3:54 PM
Sun, Oct 23
82 °FBroken clouds.5 mph84%29.76 "Hg15 mi
2:54 PM81 °FSprinkles. Mostly cloudy.5 mph94%29.77 "Hg14 mi
1:50 PM82 °FRain showers. Mostly cloudy.No wind94%29.77 "Hg10 mi
12:50 PM93 °FBroken clouds.5 mph56%29.78 "Hg15 mi
11:50 AM95 °FBroken clouds.6 mph56%29.80 "Hg15 mi
10:50 AM84 °FSprinkles. Mostly cloudy.9 mph89%29.82 "Hg12 mi
9:50 AM91 °FBroken clouds.6 mph71%29.83 "Hg15 mi
8:50 AM90 °FBroken clouds.5 mph71%29.84 "Hg15 mi
7:53 AM82 °FBroken clouds.No wind89%29.81 "Hg15 mi
6:55 AM82 °FBroken clouds.5 mph84%29.82 "Hg15 mi
5:50 AM79 °FBroken clouds.No wind94%29.80 "Hg15 mi
4:55 AM79 °FPartly cloudy.No wind94%29.79 "Hg15 mi
3:53 AM81 °FPartly cloudy.No wind89%29.78 "Hg15 mi
2:52 AM81 °FPartly cloudy.No wind89%29.79 "Hg15 mi
1:54 AM81 °FPartly cloudy.No wind89%29.78 "Hg15 mi
12:51 AM81 °FPassing clouds.No wind89%29.79 "Hg15 mi
11:50 PM
Sat, Oct 22
81 °FPassing clouds.No wind89%29.81 "Hg15 mi
10:50 PM81 °FPassing clouds.No wind89%29.82 "Hg15 mi
9:50 PM81 °FPartly cloudy.3 mph89%29.83 "Hg15 mi
8:54 PM81 °FPartly cloudy.No wind94%29.82 "Hg15 mi
7:54 PM81 °FPassing clouds.No wind94%29.80 "Hg15 mi
6:50 PM82 °FPassing clouds.5 mph84%29.79 "Hg15 mi
5:50 PM84 °FPartly cloudy.5 mph84%29.78 "Hg15 mi
Weather by CustomWeather, © 2016

See weather overviewHow to use our weather pages